Simultaneous Nadir Overpasses (SNOs) Predictions

Prediction of SNOs between METOP-B and TERRA Satellite Orbit:

Table of predicted SNOs for the next 14.0 days since TLE Epoch: 11/26/2012
Index Date (METOP-B) Time (METOP-B) METOP-B Lat,Lon Date (TERRA) Time (TERRA) TERRA Lat,Lon Distance(km) Time Diff (sec)
1 11/26/2012 11:55:06 81.26, 47.73 11/26/2012 11:55:46 81.26, 47.59 2.53 40
2 11/26/2012 12:45:46 -81.27,-144.36 11/26/2012 12:45:12 -81.27,-144.50 2.30 34
3 11/29/2012 07:29:29 81.27, 114.20 11/29/2012 07:30:01 81.26, 114.05 2.68 32
4 11/29/2012 08:20:09 -81.27, -77.85 11/29/2012 08:19:27 -81.27, -78.02 2.88 42
5 12/02/2012 03:03:53 81.26,-179.44 12/02/2012 03:04:16 81.27,-179.29 2.65 23
6 12/02/2012 03:54:34 -81.27, -11.83 12/02/2012 03:53:43 -81.27, -11.71 2.12 51
7 12/04/2012 22:38:16 81.27,-112.80 12/04/2012 22:38:31 81.27,-112.80 0.64 15
8 12/04/2012 23:28:57 -81.27, 54.84 12/04/2012 23:27:58 -81.27, 54.80 0.68 59
9 12/07/2012 18:12:39 81.26, -46.66 12/07/2012 18:12:45 81.27, -46.49 2.92 6




NCC Satellite Simultaneous Nadir Overpasses (SNOs) Prediction Service
